Weather History for KHIF - November, 2013

Change the Weather History Date:

Thursday, November 7, 2013

  Actual Average (WUND) Record (WUND)
Temperature  
Mean Temperature 46 °F -  
Max Temperature 55 °F - - (-1)
Min Temperature 36 °F - - (-1)
Degree Days  
Heating Degree Days 20    
Moisture  
Dew Point 26 °F    
Average Humidity 46    
Maximum Humidity 64    
Minimum Humidity 31    
Precipitation  
Precipitation 0.00 in - - ()
Sea Level Pressure  
Sea Level Pressure 30.19 in    
Wind  
Wind Speed 11 mph (SE)    
Max Wind Speed 18 mph    
Max Gust Speed 22 mph    
Visibility 10 miles    
Events      
Averages and records for this station are not official NWS values.
T = Trace of Precipitation, MM = Missing Value Source: NWS Daily Summary

Daily Weather History Graph

Daily Weather History Graph

Search for Another Location

Airport or City:

Trip Planner

Search our weather history database for the weather conditions in past years. The results will help you decide how hot, cold, wet, or windy it might be!

Date:

Astronomy

Nov. 07, 2013 Rise Set
Actual Time 7:06 AM MST 5:16 PM MST
Civil Twilight 6:37 AM MST 5:45 PM MST
Nautical Twilight 6:04 AM MST 6:18 PM MST
Astronomical Twilight 5:32 AM MST 6:50 PM MST
Moon 11:18 AM MST (11/7) 9:31 PM MST (11/7)
Length of Visible Light 11h 07m
Length of Day
10h 09m
Waxing Crescent, 23% of the Moon is Illuminated
Nov 7
Waxing Crescent
Nov 9
First Quarter
Nov 17
Full
Nov 25
Last Quarter
Dec 2
New

Hourly Weather History & Observations

Time (MST) Temp. Windchill Dew Point Humidity Pressure Visibility Wind Dir Wind Speed Gust Speed Precip Events Conditions
12:58 AM 39.0 °F 31.8 °F 26.4 °F 61% 30.38 in 10.0 mi ESE 11.5 mph - N/A   Clear
1:58 AM 38.3 °F 30.9 °F 26.2 °F 62% 30.38 in 10.0 mi ESE 11.5 mph - N/A   Clear
2:58 AM 38.1 °F 30.2 °F 26.1 °F 62% 30.38 in 10.0 mi ESE 12.7 mph - N/A   Clear
3:58 AM 38.1 °F 29.5 °F 25.9 °F 61% 30.35 in 10.0 mi ESE 15.0 mph - N/A   Clear
4:58 AM 38.7 °F 29.8 °F 25.7 °F 60% 30.35 in 10.0 mi ESE 16.1 mph - N/A   Overcast
5:58 AM 37.8 °F 28.0 °F 25.7 °F 62% 30.33 in 10.0 mi ESE 18.4 mph - N/A   Overcast
6:58 AM 36.9 °F 27.8 °F 25.5 °F 64% 30.34 in 10.0 mi ESE 15.0 mph - N/A   Overcast
7:58 AM 38.7 °F 34.3 °F 26.1 °F 61% 30.35 in 10.0 mi ESE 5.8 mph - N/A   Overcast
8:58 AM 42.6 °F 35.2 °F 26.8 °F 54% 30.33 in 10.0 mi ESE 15.0 mph - N/A   Mostly Cloudy
9:58 AM 44.1 °F 38.6 °F 27.3 °F 52% 30.32 in 10.0 mi East 10.4 mph - N/A   Mostly Cloudy
10:58 AM 48.7 °F - 27.3 °F 43% 30.27 in 10.0 mi ESE 11.5 mph - N/A   Mostly Cloudy
11:58 AM 54.1 °F - 27.5 °F 36% 30.23 in 10.0 mi East 3.5 mph - N/A   Mostly Cloudy
12:58 PM 55.9 °F - 26.4 °F 32% 30.18 in 10.0 mi South 17.3 mph 21.9 mph N/A   Mostly Cloudy
1:58 PM 54.5 °F - 26.1 °F 33% 30.17 in 10.0 mi SSE 6.9 mph - N/A   Overcast
2:58 PM 54.7 °F - 24.6 °F 31% 30.13 in 10.0 mi South 4.6 mph - N/A   Overcast
3:58 PM 54.3 °F - 25.3 °F 33% 30.12 in 10.0 mi SSW 6.9 mph - N/A   Overcast
4:03 PM 53.6 °F - 26.6 °F 35% 30.16 in 10.0 mi South 6.9 mph - N/A   Overcast
4:58 PM 52.3 °F - 27.1 °F 38% 30.07 in 10.0 mi South 5.8 mph - N/A   Overcast
5:58 PM 51.6 °F - 27.3 °F 39% 30.06 in 10.0 mi South 4.6 mph - N/A   Mostly Cloudy
6:58 PM 50.5 °F - 27.3 °F 41% 30.02 in 10.0 mi ESE 12.7 mph - N/A   Mostly Cloudy
7:58 PM 52.9 °F - 24.8 °F 34% 29.98 in 10.0 mi South 12.7 mph - N/A   Overcast
8:58 PM 52.3 °F - 25.7 °F 36% 29.98 in 10.0 mi South 10.4 mph - N/A   Overcast
9:58 PM 52.9 °F - 25.5 °F 35% 29.96 in 10.0 mi South 13.8 mph - N/A   Overcast
10:58 PM 49.5 °F - 27.1 °F 42% 29.95 in 10.0 mi SW 5.8 mph - N/A   Overcast
11:58 PM 48.7 °F - 28.2 °F 45% 29.94 in 10.0 mi South 8.1 mph - N/A   Overcast